Ченстохов

Poland     50˚49′01″N   19˚12′00″E
temp.,
°C
wind,
m/s
gust,
m/s
humid.,
%
clouds,
%
prec.,
mm/h
press.,
hPa
HPBL,
m
29 november, sun
sun2901:00−1˚wnw369699 0.7 1022309
04:00wnw2498100 2.6 1021208
07:00−1˚n479598 3.2 1021412
10:00−1˚n359388 0.1 1022370
13:00n348289 0.2 1022500
16:00−1˚nnw129189 0.1 1022126
19:00−2˚nw129591 0.1 102325
22:00−3˚nw129581 0.0 102423
30 november, mon
mon3001:00−3˚w229748 0.0 102547
04:00−3˚w229556 0.0 102453
07:00−3˚wsw249049 0.0 1026152
10:00−1˚wsw348851 0.0 1027422
13:00wsw457867 0.1 1026716
16:00−1˚sw348679 0.0 1026111
19:00−1˚sw248869 0.0 1026165
22:00−1˚ssw358972 0.0 1026151
1 december, tue
tue101:00−2˚s368848 0.0 1025186
04:00−2˚s47810 0.0 1024246
07:00−3˚s36800 0.0 1024198
10:00−1˚s35690 0.0 1023263
13:00+1˚s24650 0.0 1023430
16:00−1˚sse22774 0.0 102324
19:00−2˚se228114 0.0 102441
22:00−2˚ese128043 0.0 102433
2 december, wed
wed201:00−3˚ese128226 0.0 102433
04:00−3˚ese228724 0.0 102452
07:00−4˚ese248934 0.0 1024116
10:00−2˚ese34785 0.0 1024245
13:00−1˚ese34722 0.0 1023314
16:00−3˚ese35801 0.0 1022191
19:00−3˚ese478818 0.0 1022321
22:00−3˚ese369131 0.0 1021244
3 december, thu
thu301:00−4˚se258816 0.0 1020151
04:00−4˚se228378 0.0 101975
07:00−4˚se227871 0.0 101833
10:00−1˚se23642 0.0 1017137
13:00ese356050 0.0 1015247
16:00−1˚ese477278 0.0 1014185
19:00−1˚ese387860 0.0 1012207
22:00−1˚ese377995 0.0 1011174